LOCATION_NAME,SAMPLE COLLECTION TIME,DOSE EQUIVALENT RATE (nSv/h),GAMMA COUNT RATE R02 (CPM),GAMMA COUNT RATE R03 (CPM),GAMMA COUNT RATE R04 (CPM),GAMMA COUNT RATE R05 (CPM),GAMMA COUNT RATE R06 (CPM),GAMMA COUNT RATE R07 (CPM),GAMMA COUNT RATE R08 (CPM),GAMMA COUNT RATE R09 (CPM),STATUS
OH: TOLEDO,01/01/2020 00:58:00,,1227.00,595.00,163.00,69.00,45.00,63.00,30.00,24.00,APPROVED
OH: TOLEDO,01/01/2020 01:58:00,,1229.00,597.00,163.00,70.00,44.00,65.00,29.00,25.00,APPROVED
OH: TOLEDO,01/01/2020 02:58:00,,1230.00,598.00,165.00,69.00,45.00,65.00,30.00,25.00,APPROVED
OH: TOLEDO,01/01/2020 03:58:00,,1245.00,612.00,170.00,70.00,45.00,66.00,31.00,25.00,APPROVED
OH: TOLEDO,01/01/2020 04:59:00,,1250.00,625.00,175.00,74.00,47.00,67.00,32.00,26.00,APPROVED
OH: TOLEDO,01/01/2020 05:59:00,,1248.00,622.00,174.00,77.00,45.00,69.00,32.00,25.00,APPROVED
OH: TOLEDO,01/01/2020 06:59:00,,1228.00,610.00,170.00,71.00,46.00,66.00,31.00,26.00,APPROVED
OH: TOLEDO,01/01/2020 07:59:00,,1233.00,608.00,167.00,71.00,47.00,68.00,31.00,25.00,APPROVED
OH: TOLEDO,01/01/2020 09:00:00,,1235.00,609.00,168.00,72.00,46.00,64.00,29.00,25.00,APPROVED
OH: TOLEDO,01/01/2020 10:00:00,,1227.00,606.00,167.00,71.00,44.00,67.00,30.00,26.00,APPROVED
OH: TOLEDO,01/01/2020 11:00:00,,1232.00,611.00,169.00,72.00,45.00,66.00,32.00,25.00,APPROVED
OH: TOLEDO,01/01/2020 12:00:00,,1243.00,614.00,170.00,70.00,46.00,68.00,32.00,26.00,APPROVED
OH: TOLEDO,01/01/2020 13:00:00,,1240.00,611.00,171.00,73.00,47.00,65.00,32.00,25.00,APPROVED
OH: TOLEDO,01/01/2020 14:01:00,,1250.00,619.00,173.00,73.00,49.00,66.00,33.00,27.00,APPROVED
OH: TOLEDO,01/01/2020 15:01:00,,1262.00,628.00,178.00,74.00,46.00,69.00,33.00,26.00,APPROVED
OH: TOLEDO,01/01/2020 16:01:00,,1258.00,630.00,180.00,75.00,48.00,70.00,32.00,26.00,APPROVED
OH: TOLEDO,01/01/2020 17:01:00,,1246.00,639.00,180.00,75.00,50.00,71.00,33.00,25.00,APPROVED
OH: TOLEDO,01/01/2020 18:01:00,,1244.00,626.00,180.00,77.00,49.00,67.00,33.00,25.00,APPROVED
OH: TOLEDO,01/01/2020 19:02:00,,1228.00,623.00,180.00,75.00,50.00,68.00,31.00,25.00,APPROVED
OH: TOLEDO,01/01/2020 20:02:00,,1230.00,618.00,175.00,74.00,48.00,65.00,32.00,26.00,APPROVED
OH: TOLEDO,01/01/2020 21:02:00,,1233.00,620.00,177.00,72.00,49.00,66.00,31.00,26.00,APPROVED
OH: TOLEDO,01/01/2020 22:02:00,,1232.00,608.00,177.00,75.00,49.00,66.00,31.00,26.00,APPROVED
OH: TOLEDO,01/01/2020 23:02:00,,1241.00,613.00,176.00,72.00,48.00,64.00,32.00,25.00,APPROVED
OH: TOLEDO,01/02/2020 00:03:00,,1239.00,604.00,174.00,72.00,47.00,65.00,31.00,24.00,APPROVED
OH: TOLEDO,01/02/2020 01:03:00,,1234.00,603.00,166.00,72.00,46.00,64.00,31.00,25.00,APPROVED
OH: TOLEDO,01/02/2020 02:03:00,,1232.00,598.00,167.00,71.00,46.00,63.00,31.00,24.00,APPROVED
OH: TOLEDO,01/02/2020 03:03:00,,1231.00,595.00,166.00,70.00,45.00,63.00,30.00,25.00,APPROVED
OH: TOLEDO,01/02/2020 04:03:00,,1229.00,590.00,162.00,68.00,45.00,62.00,30.00,26.00,APPROVED
OH: TOLEDO,01/02/2020 05:04:00,,1236.00,596.00,162.00,68.00,46.00,63.00,29.00,25.00,APPROVED
OH: TOLEDO,01/02/2020 06:04:00,,1241.00,604.00,166.00,68.00,47.00,63.00,29.00,26.00,APPROVED
OH: TOLEDO,01/02/2020 07:04:00,,1244.00,602.00,168.00,70.00,45.00,62.00,30.00,26.00,APPROVED
OH: TOLEDO,01/02/2020 08:04:00,,1250.00,606.00,167.00,74.00,46.00,61.00,30.00,25.00,APPROVED
OH: TOLEDO,01/02/2020 09:04:00,,1264.00,616.00,173.00,71.00,47.00,65.00,31.00,25.00,APPROVED
OH: TOLEDO,01/02/2020 10:05:00,,1267.00,617.00,172.00,71.00,47.00,65.00,30.00,25.00,APPROVED
OH: TOLEDO,01/02/2020 11:05:00,,1267.00,624.00,173.00,72.00,47.00,67.00,32.00,25.00,APPROVED
OH: TOLEDO,01/02/2020 11:58:00,,1267.00,625.00,175.00,75.00,46.00,66.00,32.00,26.00,APPROVED
OH: TOLEDO,01/02/2020 13:03:00,,1244.00,579.00,158.00,67.00,45.00,60.00,27.00,25.00,APPROVED
OH: TOLEDO,01/02/2020 14:03:00,,1249.00,606.00,168.00,72.00,47.00,62.00,30.00,25.00,APPROVED
OH: TOLEDO,01/02/2020 15:03:00,,1239.00,606.00,169.00,73.00,47.00,66.00,31.00,25.00,APPROVED
OH: TOLEDO,01/02/2020 16:03:00,,1240.00,608.00,170.00,74.00,49.00,67.00,30.00,26.00,APPROVED
OH: TOLEDO,01/02/2020 17:04:00,,1218.00,597.00,169.00,72.00,46.00,62.00,30.00,24.00,APPROVED
OH: TOLEDO,01/02/2020 18:04:00,,1178.00,570.00,167.00,71.00,49.00,62.00,30.00,25.00,APPROVED
OH: TOLEDO,01/02/2020 19:04:00,,1161.00,565.00,163.00,71.00,45.00,62.00,29.00,25.00,APPROVED
OH: TOLEDO,01/02/2020 20:04:00,,1171.00,565.00,165.00,71.00,47.00,63.00,29.00,25.00,APPROVED
OH: TOLEDO,01/02/2020 21:04:00,,1162.00,569.00,163.00,70.00,47.00,60.00,30.00,25.00,APPROVED
OH: TOLEDO,01/02/2020 22:05:00,,1171.00,564.00,162.00,71.00,45.00,60.00,29.00,24.00,APPROVED
OH: TOLEDO,01/02/2020 23:05:00,,1193.00,571.00,161.00,70.00,45.00,64.00,30.00,25.00,APPROVED
OH: TOLEDO,01/03/2020 00:05:00,,1196.00,578.00,166.00,71.00,49.00,63.00,28.00,25.00,APPROVED
OH: TOLEDO,01/03/2020 01:05:00,,1205.00,585.00,161.00,72.00,46.00,63.00,30.00,25.00,APPROVED
OH: TOLEDO,01/03/2020 02:05:00,,1211.00,592.00,167.00,72.00,48.00,62.00,31.00,25.00,APPROVED
OH: TOLEDO,01/03/2020 03:06:00,,1205.00,596.00,168.00,72.00,48.00,65.00,31.00,24.00,APPROVED
OH: TOLEDO,01/03/2020 04:06:00,,1216.00,611.00,177.00,74.00,48.00,67.00,31.00,26.00,APPROVED
OH: TOLEDO,01/03/2020 05:06:00,,1234.00,623.00,178.00,75.00,50.00,67.00,31.00,25.00,APPROVED
OH: TOLEDO,01/03/2020 06:06:00,,1238.00,626.00,176.00,77.00,51.00,69.00,31.00,25.00,APPROVED
OH: TOLEDO,01/03/2020 07:07:00,,1239.00,627.00,180.00,77.00,52.00,69.00,31.00,24.00,APPROVED
OH: TOLEDO,01/03/2020 08:07:00,,1239.00,628.00,182.00,78.00,51.00,68.00,34.00,25.00,APPROVED
OH: TOLEDO,01/03/2020 09:07:00,,1224.00,634.00,184.00,78.00,52.00,71.00,33.00,26.00,APPROVED
OH: TOLEDO,01/03/2020 10:07:00,,1241.00,633.00,189.00,78.00,51.00,71.00,34.00,26.00,APPROVED
OH: TOLEDO,01/03/2020 11:07:00,,1227.00,640.00,191.00,79.00,53.00,72.00,34.00,27.00,APPROVED
OH: TOLEDO,01/03/2020 12:08:00,,1253.00,645.00,192.00,79.00,54.00,72.00,33.00,26.00,APPROVED
OH: TOLEDO,01/03/2020 13:08:00,,1255.00,645.00,193.00,79.00,55.00,74.00,34.00,26.00,APPROVED
OH: TOLEDO,01/03/2020 14:08:00,,1264.00,662.00,195.00,83.00,55.00,76.00,34.00,26.00,APPROVED
OH: TOLEDO,01/03/2020 15:08:00,,1278.00,673.00,202.00,85.00,55.00,74.00,36.00,28.00,APPROVED
OH: TOLEDO,01/03/2020 16:08:00,,1267.00,664.00,201.00,86.00,55.00,75.00,35.00,26.00,APPROVED
OH: TOLEDO,01/03/2020 17:36:00,,1288.00,735.00,196.00,107.00,57.00,73.00,47.00,24.00,APPROVED
OH: TOLEDO,01/03/2020 18:37:00,,1305.00,755.00,203.00,111.00,59.00,79.00,48.00,24.00,APPROVED
OH: TOLEDO,01/03/2020 19:37:00,,1316.00,772.00,208.00,117.00,61.00,80.00,49.00,25.00,APPROVED
OH: TOLEDO,01/03/2020 20:37:00,,1326.00,784.00,211.00,118.00,62.00,82.00,51.00,25.00,APPROVED
OH: TOLEDO,01/03/2020 21:37:00,,1340.00,793.00,209.00,123.00,61.00,83.00,53.00,26.00,APPROVED
OH: TOLEDO,01/03/2020 22:37:00,,1349.00,802.00,210.00,124.00,61.00,83.00,51.00,26.00,APPROVED
OH: TOLEDO,01/03/2020 23:38:00,,1338.00,798.00,212.00,124.00,64.00,82.00,49.00,27.00,APPROVED
OH: TOLEDO,01/04/2020 00:38:00,,1384.00,838.00,221.00,134.00,66.00,88.00,55.00,28.00,APPROVED
OH: TOLEDO,01/04/2020 01:38:00,,1416.00,865.00,226.00,141.00,68.00,92.00,56.00,28.00,APPROVED
OH: TOLEDO,01/04/2020 02:38:00,,1372.00,830.00,218.00,137.00,66.00,89.00,54.00,28.00,APPROVED
OH: TOLEDO,01/04/2020 03:38:00,,1372.00,823.00,216.00,132.00,65.00,89.00,53.00,28.00,APPROVED
OH: TOLEDO,01/04/2020 04:39:00,,1411.00,852.00,219.00,140.00,66.00,90.00,54.00,29.00,APPROVED
OH: TOLEDO,01/04/2020 05:39:00,,1471.00,913.00,231.00,153.00,73.00,95.00,58.00,31.00,APPROVED
OH: TOLEDO,01/04/2020 06:39:00,,1497.00,942.00,238.00,158.00,75.00,98.00,59.00,32.00,APPROVED
OH: TOLEDO,01/04/2020 07:39:00,,1664.00,1074.00,274.00,188.00,84.00,112.00,65.00,33.00,APPROVED
OH: TOLEDO,01/04/2020 08:39:00,,1461.00,907.00,234.00,153.00,70.00,93.00,56.00,31.00,APPROVED
OH: TOLEDO,01/04/2020 09:40:00,,1381.00,822.00,207.00,132.00,64.00,84.00,51.00,29.00,APPROVED
OH: TOLEDO,01/04/2020 10:40:00,,1365.00,820.00,209.00,131.00,63.00,84.00,51.00,29.00,APPROVED
OH: TOLEDO,01/04/2020 11:40:00,,1358.00,807.00,203.00,129.00,65.00,83.00,51.00,28.00,APPROVED
OH: TOLEDO,01/04/2020 12:40:00,,1369.00,811.00,203.00,132.00,64.00,83.00,49.00,29.00,APPROVED
OH: TOLEDO,01/04/2020 13:41:00,,1363.00,804.00,206.00,129.00,64.00,80.00,51.00,28.00,APPROVED
OH: TOLEDO,01/04/2020 14:41:00,,1305.00,760.00,198.00,120.00,59.00,76.00,48.00,26.00,APPROVED
OH: TOLEDO,01/04/2020 15:41:00,,1293.00,730.00,186.00,109.00,54.00,70.00,46.00,25.00,APPROVED
OH: TOLEDO,01/04/2020 16:41:00,,1283.00,726.00,185.00,106.00,54.00,70.00,44.00,25.00,APPROVED
OH: TOLEDO,01/04/2020 17:41:00,,1282.00,730.00,184.00,110.00,56.00,70.00,44.00,24.00,APPROVED
OH: TOLEDO,01/04/2020 18:42:00,,1289.00,735.00,188.00,108.00,55.00,70.00,45.00,25.00,APPROVED
OH: TOLEDO,01/04/2020 19:42:00,,1293.00,733.00,186.00,112.00,57.00,71.00,45.00,26.00,APPROVED
OH: TOLEDO,01/04/2020 20:42:00,,1319.00,748.00,187.00,110.00,57.00,72.00,45.00,25.00,APPROVED
OH: TOLEDO,01/04/2020 21:42:00,,1287.00,720.00,182.00,105.00,55.00,68.00,43.00,26.00,APPROVED
OH: TOLEDO,01/04/2020 22:42:00,,1276.00,703.00,177.00,101.00,53.00,66.00,42.00,25.00,APPROVED
OH: TOLEDO,01/04/2020 23:43:00,,1268.00,682.00,175.00,94.00,50.00,63.00,43.00,24.00,APPROVED
OH: TOLEDO,01/05/2020 00:43:00,,1253.00,678.00,170.00,91.00,48.00,62.00,41.00,24.00,APPROVED
OH: TOLEDO,01/05/2020 01:43:00,,1236.00,661.00,166.00,86.00,48.00,60.00,41.00,24.00,APPROVED
OH: TOLEDO,01/05/2020 02:43:00,,1242.00,650.00,166.00,88.00,48.00,59.00,40.00,23.00,APPROVED
OH: TOLEDO,01/05/2020 03:43:00,,1242.00,661.00,167.00,85.00,49.00,59.00,39.00,25.00,APPROVED
OH: TOLEDO,01/05/2020 04:44:00,,1239.00,658.00,168.00,85.00,48.00,59.00,39.00,24.00,APPROVED
OH: TOLEDO,01/05/2020 05:44:00,,1233.00,646.00,163.00,87.00,48.00,59.00,39.00,23.00,APPROVED
OH: TOLEDO,01/05/2020 06:44:00,,1233.00,643.00,163.00,85.00,45.00,56.00,38.00,25.00,APPROVED
OH: TOLEDO,01/05/2020 07:44:00,,1222.00,643.00,162.00,82.00,48.00,57.00,38.00,22.00,APPROVED
OH: TOLEDO,01/05/2020 08:44:00,,1221.00,641.00,164.00,85.00,47.00,55.00,40.00,24.00,APPROVED
OH: TOLEDO,01/05/2020 09:45:00,,1222.00,636.00,164.00,86.00,46.00,56.00,37.00,23.00,APPROVED
OH: TOLEDO,01/05/2020 10:45:00,,1226.00,643.00,160.00,82.00,48.00,57.00,39.00,24.00,APPROVED
OH: TOLEDO,01/05/2020 11:45:00,,1204.00,642.00,164.00,83.00,48.00,56.00,37.00,22.00,APPROVED
OH: TOLEDO,01/05/2020 12:45:00,,1220.00,644.00,159.00,83.00,47.00,56.00,37.00,23.00,APPROVED
OH: TOLEDO,01/05/2020 13:46:00,,1220.00,637.00,162.00,82.00,48.00,58.00,37.00,23.00,APPROVED
OH: TOLEDO,01/05/2020 14:46:00,,1215.00,640.00,163.00,83.00,47.00,58.00,39.00,23.00,APPROVED
OH: TOLEDO,01/05/2020 15:46:00,,1212.00,634.00,162.00,78.00,47.00,55.00,38.00,23.00,APPROVED
OH: TOLEDO,01/05/2020 16:46:00,,1221.00,639.00,163.00,81.00,46.00,56.00,38.00,23.00,APPROVED
OH: TOLEDO,01/05/2020 17:46:00,,1241.00,652.00,166.00,87.00,49.00,58.00,40.00,24.00,APPROVED
OH: TOLEDO,01/05/2020 18:47:00,,1254.00,670.00,170.00,88.00,49.00,61.00,41.00,24.00,APPROVED
OH: TOLEDO,01/05/2020 19:47:00,,1240.00,672.00,168.00,89.00,50.00,60.00,41.00,24.00,APPROVED
OH: TOLEDO,01/05/2020 20:47:00,,1257.00,681.00,171.00,89.00,51.00,63.00,40.00,23.00,APPROVED
OH: TOLEDO,01/05/2020 21:47:00,,1265.00,678.00,174.00,94.00,51.00,63.00,41.00,23.00,APPROVED
OH: TOLEDO,01/05/2020 22:47:00,,1264.00,694.00,177.00,97.00,53.00,64.00,41.00,24.00,APPROVED
OH: TOLEDO,01/05/2020 23:48:00,,1268.00,700.00,179.00,97.00,52.00,65.00,42.00,24.00,APPROVED
OH: TOLEDO,01/06/2020 00:48:00,,1277.00,700.00,176.00,96.00,52.00,63.00,43.00,24.00,APPROVED
OH: TOLEDO,01/06/2020 01:48:00,,1295.00,699.00,180.00,96.00,54.00,67.00,42.00,25.00,APPROVED
OH: TOLEDO,01/06/2020 02:48:00,,1314.00,720.00,183.00,102.00,52.00,67.00,42.00,24.00,APPROVED
OH: TOLEDO,01/06/2020 03:48:00,,1294.00,714.00,181.00,102.00,53.00,67.00,44.00,24.00,APPROVED
OH: TOLEDO,01/06/2020 04:49:00,,1281.00,705.00,182.00,99.00,51.00,65.00,43.00,24.00,APPROVED
OH: TOLEDO,01/06/2020 05:49:00,,1296.00,713.00,184.00,98.00,54.00,65.00,42.00,25.00,APPROVED
OH: TOLEDO,01/06/2020 06:49:00,,1301.00,719.00,186.00,101.00,55.00,68.00,44.00,25.00,APPROVED
OH: TOLEDO,01/06/2020 07:49:00,,1285.00,716.00,182.00,104.00,55.00,69.00,45.00,26.00,APPROVED
OH: TOLEDO,01/06/2020 08:49:00,,1266.00,718.00,180.00,102.00,55.00,67.00,45.00,25.00,APPROVED
OH: TOLEDO,01/06/2020 09:50:00,,1269.00,692.00,178.00,98.00,52.00,64.00,42.00,26.00,APPROVED
OH: TOLEDO,01/06/2020 10:50:00,,1269.00,689.00,173.00,96.00,50.00,64.00,42.00,24.00,APPROVED
OH: TOLEDO,01/06/2020 11:50:00,,1284.00,702.00,177.00,98.00,53.00,64.00,44.00,24.00,APPROVED
OH: TOLEDO,01/06/2020 13:06:00,,1253.00,653.00,164.00,79.00,46.00,56.00,38.00,23.00,APPROVED
OH: TOLEDO,01/06/2020 14:06:00,,1250.00,668.00,168.00,87.00,50.00,59.00,40.00,23.00,APPROVED
OH: TOLEDO,01/06/2020 15:06:00,,1247.00,661.00,169.00,86.00,49.00,58.00,39.00,23.00,APPROVED
OH: TOLEDO,01/06/2020 16:06:00,,1236.00,657.00,167.00,89.00,49.00,58.00,40.00,22.00,APPROVED
OH: TOLEDO,01/06/2020 17:06:00,,1200.00,640.00,167.00,87.00,49.00,60.00,38.00,23.00,APPROVED
OH: TOLEDO,01/06/2020 18:07:00,,1201.00,633.00,166.00,89.00,46.00,61.00,40.00,23.00,APPROVED
OH: TOLEDO,01/06/2020 19:07:00,,1185.00,635.00,168.00,84.00,49.00,61.00,38.00,23.00,APPROVED
OH: TOLEDO,01/06/2020 20:07:00,,1197.00,635.00,166.00,83.00,49.00,59.00,40.00,23.00,APPROVED
OH: TOLEDO,01/06/2020 21:07:00,,1202.00,643.00,165.00,83.00,48.00,59.00,40.00,22.00,APPROVED
OH: TOLEDO,01/06/2020 22:08:00,,1206.00,646.00,165.00,86.00,50.00,60.00,38.00,23.00,APPROVED
OH: TOLEDO,01/06/2020 23:08:00,,1224.00,653.00,166.00,86.00,49.00,58.00,38.00,23.00,APPROVED
OH: TOLEDO,01/07/2020 00:08:00,,1230.00,649.00,164.00,85.00,48.00,60.00,38.00,24.00,APPROVED
OH: TOLEDO,01/07/2020 01:08:00,,1245.00,653.00,167.00,83.00,49.00,57.00,38.00,23.00,APPROVED
OH: TOLEDO,01/07/2020 02:08:00,,1251.00,666.00,167.00,89.00,47.00,60.00,39.00,24.00,APPROVED
OH: TOLEDO,01/07/2020 03:09:00,,1267.00,681.00,170.00,90.00,51.00,61.00,40.00,24.00,APPROVED
OH: TOLEDO,01/07/2020 04:09:00,,1269.00,680.00,171.00,91.00,49.00,62.00,41.00,24.00,APPROVED
OH: TOLEDO,01/07/2020 05:09:00,,1271.00,685.00,171.00,90.00,50.00,60.00,40.00,24.00,APPROVED
OH: TOLEDO,01/07/2020 06:09:00,,1274.00,687.00,174.00,96.00,51.00,62.00,42.00,25.00,APPROVED
OH: TOLEDO,01/07/2020 07:09:00,,1293.00,700.00,177.00,95.00,52.00,61.00,43.00,25.00,APPROVED
OH: TOLEDO,01/07/2020 08:10:00,,1317.00,725.00,179.00,101.00,54.00,67.00,44.00,24.00,APPROVED
OH: TOLEDO,01/07/2020 09:10:00,,1333.00,744.00,186.00,106.00,57.00,69.00,46.00,27.00,APPROVED
OH: TOLEDO,01/07/2020 10:10:00,,1361.00,769.00,191.00,112.00,58.00,72.00,46.00,27.00,APPROVED
OH: TOLEDO,01/07/2020 11:10:00,,1363.00,775.00,192.00,113.00,59.00,74.00,45.00,27.00,APPROVED
OH: TOLEDO,01/07/2020 12:10:00,,1350.00,771.00,190.00,113.00,57.00,71.00,46.00,27.00,APPROVED
OH: TOLEDO,01/07/2020 13:11:00,,1359.00,767.00,193.00,112.00,59.00,74.00,47.00,27.00,APPROVED
OH: TOLEDO,01/07/2020 14:11:00,,1396.00,812.00,199.00,123.00,62.00,77.00,47.00,27.00,APPROVED
OH: TOLEDO,01/07/2020 15:11:00,,1409.00,832.00,205.00,129.00,62.00,81.00,48.00,28.00,APPROVED
OH: TOLEDO,01/07/2020 16:11:00,,1388.00,811.00,203.00,123.00,63.00,79.00,50.00,29.00,APPROVED
OH: TOLEDO,01/07/2020 17:11:00,,1335.00,775.00,194.00,118.00,59.00,74.00,48.00,27.00,APPROVED
OH: TOLEDO,01/07/2020 18:12:00,,1236.00,689.00,182.00,99.00,53.00,68.00,44.00,25.00,APPROVED
OH: TOLEDO,01/07/2020 19:12:00,,1192.00,646.00,173.00,87.00,48.00,61.00,41.00,23.00,APPROVED
OH: TOLEDO,01/07/2020 20:12:00,,1195.00,643.00,167.00,84.00,49.00,58.00,39.00,24.00,APPROVED
OH: TOLEDO,01/07/2020 21:12:00,,1214.00,644.00,167.00,84.00,50.00,57.00,38.00,22.00,APPROVED
OH: TOLEDO,01/07/2020 22:12:00,,1221.00,648.00,170.00,86.00,49.00,59.00,39.00,22.00,APPROVED
OH: TOLEDO,01/07/2020 23:13:00,,1226.00,646.00,167.00,85.00,49.00,57.00,40.00,23.00,APPROVED
OH: TOLEDO,01/08/2020 00:13:00,,1230.00,654.00,169.00,84.00,49.00,60.00,40.00,24.00,APPROVED
OH: TOLEDO,01/08/2020 01:13:00,,1257.00,659.00,168.00,86.00,51.00,58.00,39.00,23.00,APPROVED
OH: TOLEDO,01/08/2020 02:13:00,,1274.00,673.00,168.00,90.00,50.00,61.00,41.00,24.00,APPROVED
OH: TOLEDO,01/08/2020 03:14:00,,1277.00,688.00,175.00,93.00,50.00,63.00,41.00,24.00,APPROVED
OH: TOLEDO,01/08/2020 04:14:00,,1289.00,708.00,176.00,95.00,53.00,65.00,41.00,24.00,APPROVED
OH: TOLEDO,01/08/2020 05:14:00,,1289.00,698.00,176.00,95.00,53.00,65.00,42.00,25.00,APPROVED
OH: TOLEDO,01/08/2020 06:14:00,,1280.00,686.00,173.00,95.00,52.00,63.00,41.00,25.00,APPROVED
OH: TOLEDO,01/08/2020 07:14:00,,1256.00,668.00,170.00,90.00,50.00,62.00,41.00,24.00,APPROVED
OH: TOLEDO,01/08/2020 08:15:00,,1338.00,727.00,180.00,98.00,53.00,67.00,44.00,25.00,APPROVED
OH: TOLEDO,01/08/2020 09:15:00,,1280.00,687.00,173.00,92.00,50.00,63.00,40.00,25.00,APPROVED
OH: TOLEDO,01/08/2020 10:15:00,,1248.00,661.00,167.00,86.00,49.00,58.00,39.00,22.00,APPROVED
OH: TOLEDO,01/08/2020 11:15:00,,1243.00,656.00,166.00,84.00,47.00,56.00,38.00,24.00,APPROVED
OH: TOLEDO,01/08/2020 12:45:00,,1232.00,636.00,160.00,78.00,46.00,56.00,36.00,22.00,APPROVED
OH: TOLEDO,01/08/2020 13:45:00,,1227.00,643.00,157.00,80.00,47.00,57.00,37.00,23.00,APPROVED
OH: TOLEDO,01/08/2020 14:46:00,,1226.00,633.00,161.00,79.00,47.00,55.00,37.00,22.00,APPROVED
OH: TOLEDO,01/08/2020 15:46:00,,1221.00,640.00,160.00,82.00,47.00,57.00,38.00,23.00,APPROVED
OH: TOLEDO,01/08/2020 16:46:00,,1230.00,644.00,162.00,82.00,46.00,58.00,38.00,23.00,APPROVED
OH: TOLEDO,01/08/2020 17:46:00,,1225.00,642.00,163.00,84.00,47.00,59.00,38.00,24.00,APPROVED
OH: TOLEDO,01/08/2020 18:46:00,,1229.00,646.00,163.00,84.00,47.00,58.00,38.00,22.00,APPROVED
OH: TOLEDO,01/08/2020 19:47:00,,1226.00,645.00,165.00,83.00,49.00,58.00,38.00,23.00,APPROVED
OH: TOLEDO,01/08/2020 20:47:00,,1240.00,652.00,161.00,86.00,48.00,59.00,37.00,22.00,APPROVED
OH: TOLEDO,01/08/2020 21:47:00,,1228.00,639.00,161.00,86.00,47.00,57.00,39.00,23.00,APPROVED
OH: TOLEDO,01/08/2020 22:47:00,,1227.00,650.00,165.00,87.00,49.00,57.00,40.00,23.00,APPROVED
OH: TOLEDO,01/08/2020 23:47:00,,1246.00,663.00,166.00,84.00,48.00,60.00,39.00,24.00,APPROVED
OH: TOLEDO,01/09/2020 00:48:00,,1244.00,659.00,162.00,87.00,49.00,58.00,38.00,24.00,APPROVED
OH: TOLEDO,01/09/2020 01:48:00,,1246.00,670.00,165.00,89.00,48.00,59.00,40.00,23.00,APPROVED
OH: TOLEDO,01/09/2020 02:48:00,,1250.00,672.00,165.00,88.00,48.00,60.00,38.00,24.00,APPROVED
OH: TOLEDO,01/09/2020 03:48:00,,1251.00,662.00,166.00,86.00,47.00,60.00,36.00,23.00,APPROVED
OH: TOLEDO,01/09/2020 04:48:00,,1244.00,668.00,166.00,89.00,49.00,61.00,38.00,24.00,APPROVED
OH: TOLEDO,01/09/2020 05:49:00,,1252.00,678.00,168.00,89.00,48.00,60.00,39.00,24.00,APPROVED
OH: TOLEDO,01/09/2020 06:49:00,,1275.00,693.00,170.00,95.00,51.00,63.00,40.00,24.00,APPROVED
OH: TOLEDO,01/09/2020 07:49:00,,1277.00,694.00,170.00,93.00,51.00,62.00,41.00,26.00,APPROVED
OH: TOLEDO,01/09/2020 08:49:00,,1279.00,699.00,172.00,95.00,50.00,64.00,42.00,24.00,APPROVED
OH: TOLEDO,01/09/2020 09:49:00,,1282.00,717.00,175.00,95.00,51.00,64.00,42.00,26.00,APPROVED
OH: TOLEDO,01/09/2020 10:50:00,,1323.00,741.00,182.00,104.00,55.00,68.00,43.00,25.00,APPROVED
OH: TOLEDO,01/09/2020 11:50:00,,1347.00,752.00,185.00,108.00,56.00,69.00,44.00,26.00,APPROVED
OH: TOLEDO,01/09/2020 12:50:00,,1339.00,758.00,187.00,111.00,56.00,71.00,45.00,27.00,APPROVED
OH: TOLEDO,01/09/2020 13:50:00,,1330.00,751.00,182.00,106.00,58.00,70.00,45.00,27.00,APPROVED
OH: TOLEDO,01/09/2020 14:51:00,,1331.00,751.00,186.00,105.00,55.00,69.00,43.00,26.00,APPROVED
OH: TOLEDO,01/09/2020 15:51:00,,1325.00,745.00,187.00,107.00,55.00,68.00,43.00,27.00,APPROVED
OH: TOLEDO,01/09/2020 16:51:00,,1310.00,725.00,183.00,105.00,53.00,69.00,44.00,26.00,APPROVED
OH: TOLEDO,01/09/2020 17:51:00,,1293.00,720.00,181.00,102.00,55.00,65.00,41.00,25.00,APPROVED
OH: TOLEDO,01/09/2020 18:51:00,,1257.00,686.00,177.00,98.00,53.00,67.00,42.00,26.00,APPROVED
OH: TOLEDO,01/09/2020 19:52:00,,1248.00,719.00,185.00,102.00,55.00,69.00,44.00,26.00,APPROVED
OH: TOLEDO,01/09/2020 20:52:00,,1239.00,737.00,190.00,107.00,55.00,74.00,47.00,28.00,APPROVED
OH: TOLEDO,01/09/2020 21:52:00,,1253.00,754.00,196.00,111.00,56.00,75.00,48.00,29.00,APPROVED
OH: TOLEDO,01/09/2020 22:52:00,,1275.00,773.00,203.00,116.00,57.00,76.00,49.00,29.00,APPROVED
OH: TOLEDO,01/09/2020 23:52:00,,1309.00,784.00,207.00,118.00,59.00,78.00,52.00,30.00,APPROVED
OH: TOLEDO,01/10/2020 00:53:00,,1309.00,794.00,207.00,118.00,61.00,80.00,49.00,31.00,APPROVED
OH: TOLEDO,01/10/2020 01:53:00,,1326.00,801.00,212.00,121.00,63.00,80.00,53.00,30.00,APPROVED
OH: TOLEDO,01/10/2020 02:53:00,,1313.00,793.00,211.00,123.00,62.00,82.00,50.00,31.00,APPROVED
OH: TOLEDO,01/10/2020 03:53:00,,1286.00,787.00,209.00,122.00,59.00,81.00,51.00,31.00,APPROVED
OH: TOLEDO,01/10/2020 04:53:00,,1262.00,764.00,197.00,116.00,58.00,75.00,49.00,28.00,APPROVED
OH: TOLEDO,01/10/2020 05:54:00,,1261.00,758.00,203.00,112.00,57.00,75.00,50.00,30.00,APPROVED
OH: TOLEDO,01/10/2020 06:54:00,,1291.00,773.00,204.00,118.00,58.00,78.00,49.00,30.00,APPROVED
OH: TOLEDO,01/10/2020 07:54:00,,1431.00,905.00,236.00,141.00,67.00,91.00,55.00,33.00,APPROVED
OH: TOLEDO,01/10/2020 08:54:00,,1458.00,917.00,242.00,147.00,69.00,93.00,57.00,34.00,APPROVED
OH: TOLEDO,01/10/2020 09:55:00,,1522.00,984.00,256.00,163.00,74.00,101.00,62.00,36.00,APPROVED
OH: TOLEDO,01/10/2020 10:55:00,,1475.00,926.00,246.00,150.00,71.00,93.00,57.00,35.00,APPROVED
OH: TOLEDO,01/10/2020 11:55:00,,1473.00,934.00,244.00,150.00,71.00,93.00,59.00,34.00,APPROVED
OH: TOLEDO,01/10/2020 12:55:00,,1428.00,899.00,234.00,145.00,71.00,90.00,57.00,33.00,APPROVED
OH: TOLEDO,01/10/2020 13:55:00,,1391.00,883.00,236.00,141.00,68.00,90.00,57.00,32.00,APPROVED
OH: TOLEDO,01/10/2020 14:56:00,,1337.00,836.00,223.00,134.00,63.00,85.00,54.00,32.00,APPROVED
OH: TOLEDO,01/10/2020 15:56:00,,1329.00,802.00,208.00,129.00,62.00,84.00,51.00,31.00,APPROVED
OH: TOLEDO,01/10/2020 16:56:00,,1375.00,807.00,212.00,122.00,63.00,80.00,48.00,27.00,APPROVED
OH: TOLEDO,01/10/2020 17:56:00,,1408.00,828.00,218.00,125.00,63.00,82.00,49.00,27.00,APPROVED
OH: TOLEDO,01/10/2020 18:56:00,,1383.00,816.00,221.00,120.00,63.00,83.00,50.00,26.00,APPROVED
OH: TOLEDO,01/10/2020 19:57:00,,1323.00,758.00,206.00,107.00,59.00,78.00,47.00,25.00,APPROVED
OH: TOLEDO,01/10/2020 20:57:00,,1295.00,740.00,205.00,103.00,57.00,75.00,46.00,25.00,APPROVED
OH: TOLEDO,01/10/2020 21:57:00,,1214.00,680.00,187.00,93.00,55.00,69.00,43.00,23.00,APPROVED
OH: TOLEDO,01/10/2020 22:57:00,,1181.00,653.00,180.00,89.00,52.00,66.00,40.00,23.00,APPROVED
OH: TOLEDO,01/10/2020 23:57:00,,1172.00,644.00,177.00,87.00,51.00,65.00,40.00,23.00,APPROVED
OH: TOLEDO,01/11/2020 00:58:00,,1167.00,649.00,177.00,86.00,51.00,64.00,41.00,24.00,APPROVED
OH: TOLEDO,01/11/2020 01:58:00,,1295.00,746.00,205.00,103.00,59.00,75.00,45.00,24.00,APPROVED
OH: TOLEDO,01/11/2020 02:58:00,,1305.00,767.00,209.00,110.00,59.00,80.00,49.00,25.00,APPROVED
OH: TOLEDO,01/11/2020 03:58:00,,1271.00,744.00,207.00,108.00,59.00,77.00,47.00,25.00,APPROVED
OH: TOLEDO,01/11/2020 04:58:00,,1214.00,684.00,193.00,98.00,57.00,70.00,44.00,24.00,APPROVED
OH: TOLEDO,01/11/2020 05:59:00,,1230.00,700.00,188.00,97.00,54.00,68.00,45.00,23.00,APPROVED
OH: TOLEDO,01/11/2020 06:59:00,,1197.00,668.00,182.00,93.00,52.00,67.00,42.00,23.00,APPROVED
OH: TOLEDO,01/11/2020 07:59:00,,1157.00,628.00,174.00,85.00,48.00,60.00,41.00,23.00,APPROVED
OH: TOLEDO,01/11/2020 08:59:00,,1144.00,630.00,171.00,85.00,49.00,63.00,40.00,24.00,APPROVED
OH: TOLEDO,01/11/2020 10:00:00,,1144.00,620.00,168.00,85.00,49.00,61.00,40.00,23.00,APPROVED
OH: TOLEDO,01/11/2020 11:00:00,,1145.00,622.00,173.00,82.00,48.00,60.00,38.00,23.00,APPROVED
OH: TOLEDO,01/11/2020 12:00:00,,1143.00,626.00,171.00,87.00,49.00,62.00,42.00,23.00,APPROVED
OH: TOLEDO,01/11/2020 13:00:00,,1150.00,630.00,168.00,87.00,49.00,60.00,39.00,23.00,APPROVED
OH: TOLEDO,01/11/2020 14:00:00,,1162.00,636.00,172.00,87.00,50.00,62.00,41.00,23.00,APPROVED
OH: TOLEDO,01/11/2020 15:01:00,,1135.00,627.00,169.00,86.00,50.00,62.00,41.00,24.00,APPROVED
OH: TOLEDO,01/11/2020 16:01:00,,1233.00,701.00,188.00,100.00,55.00,69.00,45.00,25.00,APPROVED